FW2647 Weather Reports


time (UTC)temp
C
wind
direction
speed
KPH
gust
KPH
rain 1hr
cm
rain 24hr
cm
rain mn
cm
humidity
%
barometer
mb
20260507123003 15 174 8.0 16.1 0.00 0.15 0.00 56 1016.0
20260507122006 14 149 6.4 12.9 0.00 0.15 0.00 60 1016.2
20260507121005 14 177 9.7 16.1 0.00 0.15 0.00 58 1016.1
20260507120005 16 156 3.2 12.9 0.00 0.15 0.00 60 1016.1
20260507115003 14 118 6.4 12.9 0.00 0.15 0.00 60 1016.0
20260507114005 14 153 6.4 16.1 0.00 0.15 0.00 60 1016.0
20260507113006 14 145 6.4 16.1 0.00 0.15 0.00 57 1016.1
20260507112004 15 60 6.4 12.9 0.00 0.15 0.00 61 1016.0
20260507111005 14 56 6.4 12.9 0.00 0.15 0.00 63 1016.1
20260507110004 13 87 6.4 12.9 0.00 0.15 0.00 62 1016.2
20260507105006 13 70 6.4 12.9 0.00 0.15 0.00 63 1016.3
20260507104005 13 82 4.8 9.7 0.00 0.15 0.00 61 1016.2
20260507103006 14 91 4.8 9.7 0.00 0.15 0.00 61 1016.3
20260507102006 15 81 4.8 9.7 0.00 0.15 0.00 61 1016.2
20260507101005 14 22 4.8 12.9 0.00 0.15 0.00 62 1016.0
20260507100007 13 3 3.2 6.4 0.00 0.15 0.00 67 1016.0
20260507095006 12 61 6.4 9.7 0.00 0.15 0.00 66 1016.0
20260507094004 12 33 6.4 12.9 0.00 0.15 0.00 66 1015.8
20260507093003 13 60 4.8 11.3 0.00 0.15 0.00 65 1015.8
20260507092004 12 140 3.2 6.4 0.00 0.15 0.00 70 1015.9
20260507091216 12 128 3.2 6.4 0.00 0.15 0.00 69 1015.9
20260507090006 12 111 3.2 6.4 0.00 0.15 0.00 72 1015.8
20260507085005 11 43 4.8 6.4 0.00 0.15 0.00 71 1015.7
20260507084005 11 86 3.2 6.4 0.00 0.15 0.00 72 1015.7
20260507083004 11 34 3.2 6.4 0.00 0.15 0.00 72 1015.6
20260507082003 11 77 3.2 6.4 0.00 0.15 0.00 72 1015.7
20260507081006 12 94 3.2 6.4 0.00 0.15 0.00 70 1015.6
20260507080006 12 105 4.8 6.4 0.00 0.15 0.00 71 1015.5
20260507075004 12 88 3.2 6.4 0.00 0.15 0.00 74 1015.5
20260507074003 11 125 3.2 9.7 0.00 0.15 0.00 76 1015.3
20260507073005 10 114 4.8 9.7 0.00 0.15 0.00 74 1015.3
20260507072006 11 47 4.8 9.7 0.00 0.15 0.00 80 1015.2
20260507071005 11 52 3.2 8.0 0.00 0.15 0.00 85 1015.3
20260507070006 10 67 4.8 9.7 0.00 0.15 0.00 91 1015.2
20260507065006 10 66 4.8 8.0 0.00 0.15 0.00 96 1015.3
20260507064004 9 66 3.2 6.4 0.00 0.15 0.00 99 1015.2
20260507063006 8 61 3.2 6.4 0.00 0.15 0.00 99 1015.2
20260507062005 8 81 3.2 6.4 0.00 0.15 0.00 99 1015.2
20260507061218 7 37 1.6 3.2 0.00 0.15 0.00 99 1015.1
20260507060219 6 45 0.0 3.2 0.00 0.15 0.00 99 1015.1
20260507055003 6 45 0.0 3.2 0.00 0.15 0.00 99 1014.9
20260507054003 5 45 0.0 3.2 0.00 0.15 0.00 99 1015.1
20260507053217 4 0 0.0 0.0 0.00 0.15 0.00 99 1014.9
20260507052005 3 315 0.0 1.6 0.00 0.15 0.00 99 1014.8
20260507051213 3 315 0.0 3.2 0.00 0.15 0.00 99 1014.8
20260507050008 3 315 1.6 3.2 0.00 0.15 0.00 99 1014.9
20260507045005 3 315 0.0 3.2 0.00 0.15 0.00 99 1014.7
20260507044005 3 315 0.0 3.2 0.00 0.15 0.00 99 1014.7
20260507043003 3 315 1.6 3.2 0.00 0.15 0.00 99 1014.5
20260507042006 3 315 1.6 3.2 0.00 0.15 0.00 99 1014.4
20260507041006 3 335 0.0 3.2 0.00 0.15 0.00 99 1014.3
20260507040004 3 360 0.0 3.2 0.00 0.15 0.00 99 1014.2
20260507035003 4 360 0.0 3.2 0.00 0.15 0.00 99 1014.1
20260507034007 4 10 1.6 3.2 0.00 0.15 0.00 99 1014.2
20260507033003 4 45 0.0 3.2 0.00 0.15 0.00 99 1014.2
20260507032005 4 45 1.6 3.2 0.00 0.15 0.00 99 1014.3
20260507031004 4 45 1.6 3.2 0.00 0.15 0.00 99 1014.2
20260507030005 4 8 1.6 4.8 0.00 0.15 0.00 99 1014.2
20260507025006 4 18 1.6 4.8 0.00 0.15 0.00 99 1014.3
20260507024218 4 16 1.6 4.8 0.00 0.15 0.00 99 1014.2
20260507023003 4 360 0.0 3.2 0.00 0.15 0.00 99 1014.2
20260507022005 4 14 0.0 3.2 0.00 0.15 0.00 98 1014.2
20260507021006 4 0 0.0 1.6 0.00 0.15 0.00 98 1014.1
20260507020005 4 360 0.0 3.2 0.00 0.15 0.00 98 1014.1
20260507015217 4 1 1.6 3.2 0.00 0.15 0.00 98 1014.1
20260507014003 5 14 1.6 4.8 0.00 0.15 0.00 97 1014.0
20260507013004 5 41 1.6 4.8 0.00 0.15 0.00 97 1013.9
20260507012006 5 41 1.6 4.8 0.00 0.15 0.00 97 1014.0
20260507010217 5 360 1.6 3.2 0.00 0.15 0.00 96 1014.0
20260507005006 5 15 1.6 3.2 0.00 0.15 0.00 96 1014.0
20260507004003 5 9 1.6 3.2 0.00 0.15 0.00 96 1014.0
20260507003220 5 360 1.6 3.2 0.00 0.15 0.00 95 1014.0
20260507002216 5 20 1.6 3.2 0.00 0.15 0.00 95 1014.1
20260507001003 6 8 1.6 3.2 0.00 0.15 0.00 95 1014.1
20260507000004 6 7 1.6 4.8 0.00 0.15 0.00 95 1014.2
20260506235005 6 34 3.2 4.8 0.00 0.15 0.00 95 1014.2
20260506234003 6 45 3.2 6.4 0.00 0.15 0.00 95 1014.2
20260506233005 6 19 3.2 6.4 0.00 0.15 0.00 95 1014.1
20260506232216 6 18 3.2 6.4 0.00 0.15 0.00 95 1014.2
20260506231005 6 22 1.6 6.4 0.00 0.15 0.00 95 1014.1
20260506230005 6 25 3.2 6.4 0.00 0.15 0.00 95 1014.2
20260506225005 6 8 1.6 4.8 0.00 0.15 0.15 94 1014.3
20260506224003 6 360 1.6 3.2 0.00 0.15 0.15 94 1014.2
20260506223216 6 17 3.2 4.8 0.00 0.15 0.15 94 1014.1
20260506222003 7 30 3.2 6.4 0.00 0.15 0.15 93 1014.0
20260506221003 7 38 3.2 6.4 0.00 0.15 0.15 93 1013.9
20260506220003 7 46 4.8 9.7 0.00 0.15 0.15 93 1013.9
20260506215004 7 48 3.2 6.4 0.00 0.15 0.15 89 1013.9
20260506214003 7 45 3.2 6.4 0.00 0.15 0.15 89 1013.9
20260506213006 7 38 3.2 6.4 0.00 0.15 0.15 89 1014.0
20260506212003 7 47 3.2 6.4 0.00 0.15 0.15 89 1013.8
20260506211005 8 45 3.2 6.4 0.00 0.15 0.15 89 1013.9
20260506210005 8 59 3.2 4.8 0.00 0.15 0.15 89 1013.8
20260506205003 8 58 3.2 6.4 0.00 0.15 0.15 89 1013.8
20260506204006 8 68 4.8 8.0 0.00 0.15 0.15 89 1013.8
20260506203003 8 62 6.4 12.9 0.00 0.15 0.15 90 1013.7
20260506202006 8 75 4.8 11.3 0.00 0.15 0.15 90 1013.7
20260506201004 8 45 3.2 6.4 0.00 0.15 0.15 90 1013.7
20260506200005 8 82 1.6 6.4 0.00 0.15 0.15 89 1013.6
20260506195216 8 115 1.6 4.8 0.00 0.15 0.15 89 1013.5
20260506194003 8 97 3.2 6.4 0.00 0.15 0.15 89 1013.2
20260506193213 8 79 3.2 6.4 0.00 0.15 0.15 90 1013.3
20260506192005 8 69 3.2 9.7 0.00 0.15 0.15 90 1013.4
20260506191005 8 90 0.0 3.2 0.00 0.15 0.15 90 1013.1
20260506190006 9 126 1.6 3.2 0.00 0.15 0.15 90 1013.1
20260506185217 9 60 1.6 6.4 0.00 0.15 0.15 91 1012.9
20260506184217 9 62 3.2 6.4 0.00 0.15 0.15 91 1012.9
20260506183003 9 67 4.8 8.0 0.00 0.15 0.15 92 1012.9
20260506182225 9 60 3.2 6.4 0.00 0.15 0.15 92 1012.7
20260506181006 9 77 1.6 6.4 0.00 0.15 0.15 92 1012.6
20260506180216 10 315 0.0 3.2 0.00 0.15 0.15 92 1012.6
20260506175006 10 135 0.0 3.2 0.00 0.15 0.15 92 1012.4
20260506174003 10 302 1.6 4.8 0.00 0.15 0.15 91 1012.4
20260506173214 10 314 1.6 4.8 0.00 0.15 0.15 91 1012.3
20260506172004 10 319 1.6 4.8 0.00 0.15 0.15 90 1012.2
20260506171004 10 4 1.6 4.8 0.00 0.15 0.15 90 1012.2
20260506170005 10 45 0.0 3.2 0.00 0.15 0.15 90 1012.2
20260506165003 10 73 0.0 3.2 0.00 0.15 0.15 90 1012.2
20260506164219 10 331 0.0 3.2 0.00 0.15 0.15 90 1012.2
20260506163003 10 332 0.0 3.2 0.05 0.15 0.15 89 1012.4
20260506162216 10 0 0.0 1.6 0.10 0.15 0.15 89 1012.4
20260506161005 10 70 0.0 3.2 0.10 0.15 0.15 89 1012.2
20260506160005 10 79 1.6 6.4 0.10 0.15 0.15 88 1012.2
20260506155005 10 100 1.6 4.8 0.10 0.15 0.15 87 1012.2
20260506154007 10 172 1.6 6.4 0.05 0.13 0.13 86 1012.2
20260506153220 10 130 3.2 9.7 0.03 0.10 0.10 85 1012.1
20260506152006 10 54 3.2 6.4 0.00 0.05 0.05 84 1012.0
20260506151005 11 85 3.2 6.4 0.00 0.05 0.05 84 1012.0
20260506150004 11 6 3.2 6.4 0.00 0.05 0.05 84 1011.8
20260506145003 11 359 3.2 6.4 0.00 0.05 0.05 85 1011.9
20260506144005 11 19 4.8 6.4 0.03 0.05 0.05 86 1011.9
20260506143003 11 8 4.8 9.7 0.03 0.05 0.05 89 1011.8
20260506142005 11 349 3.2 6.4 0.03 0.05 0.05 90 1012.0
20260506141005 11 14 3.2 12.9 0.03 0.05 0.05 91 1012.1
20260506140005 10 3 3.2 6.4 0.03 0.05 0.05 91 1012.1
20260506135006 10 21 4.8 12.9 0.03 0.05 0.05 90 1012.1
20260506134005 10 7 4.8 11.3 0.00 0.03 0.03 90 1012.1
20260506133217 10 27 6.4 11.3 0.03 0.03 0.03 90 1012.1
20260506132003 10 40 9.7 17.7 0.03 0.03 0.03 89 1012.1
20260506131003 10 25 6.4 12.9 0.03 0.03 0.03 89 1012.0
20260506130004 10 39 8.0 12.9 0.03 0.03 0.03 89 1012.0
20260506125006 10 40 8.0 14.5 0.03 0.03 0.03 88 1011.9
20260506124005 10 41 8.0 12.9 0.03 0.03 0.03 87 1011.8